Year,Month,Day,Hour,Minute,Value (Times are PST for temperature in C)
2019,07,14,00,00,18.80
2019,07,14,00,01,18.80
2019,07,14,00,02,18.80
2019,07,14,00,03,18.80
2019,07,14,00,04,18.80
2019,07,14,00,05,18.80
2019,07,14,00,06,18.70
2019,07,14,00,07,18.70
2019,07,14,00,08,18.70
2019,07,14,00,09,18.70
2019,07,14,00,10,18.70
2019,07,14,00,11,18.70
2019,07,14,00,12,18.70
2019,07,14,00,13,18.70
2019,07,14,00,14,18.70
2019,07,14,00,15,18.70
2019,07,14,00,16,18.70
2019,07,14,00,17,18.70
2019,07,14,00,18,18.70
2019,07,14,00,19,18.70
2019,07,14,00,20,18.70
2019,07,14,00,21,18.70
2019,07,14,00,22,18.70
2019,07,14,00,23,18.70
2019,07,14,00,24,18.70
2019,07,14,00,25,18.80
2019,07,14,00,26,18.80
2019,07,14,00,27,18.80
2019,07,14,00,28,18.80
2019,07,14,00,29,18.80
2019,07,14,00,30,18.80
2019,07,14,00,31,18.80
2019,07,14,00,32,18.80
2019,07,14,00,33,18.80
2019,07,14,00,34,18.70
2019,07,14,00,35,18.70
2019,07,14,00,36,18.70
2019,07,14,00,37,18.70
2019,07,14,00,38,18.70
2019,07,14,00,39,18.60
2019,07,14,00,40,18.60
2019,07,14,00,41,18.60
2019,07,14,00,42,18.60
2019,07,14,00,43,18.60
2019,07,14,00,44,18.50
2019,07,14,00,45,18.50
2019,07,14,00,46,18.50
2019,07,14,00,47,18.40
2019,07,14,00,48,18.40
2019,07,14,00,49,18.40
2019,07,14,00,50,18.40
2019,07,14,00,51,18.40
2019,07,14,00,52,18.40
2019,07,14,00,53,18.40
2019,07,14,00,54,18.40
2019,07,14,00,55,18.30
2019,07,14,00,56,18.30
2019,07,14,00,57,18.30
2019,07,14,00,58,18.20
2019,07,14,00,59,18.20
2019,07,14,01,00,18.20
2019,07,14,01,01,18.20
2019,07,14,01,02,18.10
2019,07,14,01,03,18.10
2019,07,14,01,04,18.10
2019,07,14,01,05,18.10
2019,07,14,01,06,18.00
2019,07,14,01,07,18.00
2019,07,14,01,08,17.90
2019,07,14,01,09,17.90
2019,07,14,01,10,17.90
2019,07,14,01,11,17.90
2019,07,14,01,12,17.90
2019,07,14,01,13,17.90
2019,07,14,01,14,17.80
2019,07,14,01,15,17.80
2019,07,14,01,16,17.80
2019,07,14,01,17,17.70
2019,07,14,01,18,17.70
2019,07,14,01,19,17.70
2019,07,14,01,20,17.60
2019,07,14,01,21,17.50
2019,07,14,01,22,17.50
2019,07,14,01,23,17.40
2019,07,14,01,24,17.40
2019,07,14,01,25,17.30
2019,07,14,01,26,17.30
2019,07,14,01,27,17.20
2019,07,14,01,28,17.20
2019,07,14,01,29,17.10
2019,07,14,01,30,17.00
2019,07,14,01,31,17.00
2019,07,14,01,32,16.90
2019,07,14,01,33,16.90
2019,07,14,01,34,16.90
2019,07,14,01,35,16.80
2019,07,14,01,36,16.80
2019,07,14,01,37,16.80
2019,07,14,01,38,16.80
2019,07,14,01,39,16.80
2019,07,14,01,40,16.70
2019,07,14,01,41,16.70
2019,07,14,01,42,16.70
2019,07,14,01,43,16.70
2019,07,14,01,44,16.60
2019,07,14,01,45,16.60
2019,07,14,01,46,16.60
2019,07,14,01,47,16.60
2019,07,14,01,48,16.60
2019,07,14,01,49,16.60
2019,07,14,01,50,16.50
2019,07,14,01,51,16.50
2019,07,14,01,52,16.50
2019,07,14,01,53,16.50
2019,07,14,01,54,16.50
2019,07,14,01,55,16.50
2019,07,14,01,56,16.50
2019,07,14,01,57,16.50
2019,07,14,01,58,16.50
2019,07,14,01,59,16.50
2019,07,14,02,00,16.50
2019,07,14,02,01,16.40
2019,07,14,02,02,16.40
2019,07,14,02,03,16.40
2019,07,14,02,04,16.40
2019,07,14,02,05,16.30
2019,07,14,02,06,16.30
2019,07,14,02,07,16.30
2019,07,14,02,08,16.30
2019,07,14,02,09,16.30
2019,07,14,02,10,16.30
2019,07,14,02,11,16.20
2019,07,14,02,12,16.20
2019,07,14,02,13,16.20
2019,07,14,02,14,16.20
2019,07,14,02,15,16.20
2019,07,14,02,16,16.10
2019,07,14,02,17,16.10
2019,07,14,02,18,16.10
2019,07,14,02,19,16.10
2019,07,14,02,20,16.10
2019,07,14,02,21,16.10
2019,07,14,02,22,16.10
2019,07,14,02,23,16.10
2019,07,14,02,24,16.00
2019,07,14,02,25,16.00
2019,07,14,02,26,16.00
2019,07,14,02,27,16.00
2019,07,14,02,28,15.90
2019,07,14,02,29,15.90
2019,07,14,02,30,15.90
2019,07,14,02,31,15.80
2019,07,14,02,32,15.80
2019,07,14,02,33,15.80
2019,07,14,02,34,15.80
2019,07,14,02,35,15.80
2019,07,14,02,36,15.70
2019,07,14,02,37,15.70
2019,07,14,02,38,15.70
2019,07,14,02,39,15.70
2019,07,14,02,40,15.70
2019,07,14,02,41,15.60
2019,07,14,02,42,15.60
2019,07,14,02,43,15.60
2019,07,14,02,44,15.50
2019,07,14,02,45,15.50
2019,07,14,02,46,15.40
2019,07,14,02,47,15.40
2019,07,14,02,48,15.40
2019,07,14,02,49,15.40
2019,07,14,02,50,15.40
2019,07,14,02,51,15.30
2019,07,14,02,52,15.30
2019,07,14,02,53,15.30
2019,07,14,02,54,15.30
2019,07,14,02,55,15.30
2019,07,14,02,56,15.30
2019,07,14,02,57,15.30
2019,07,14,02,58,15.20
2019,07,14,02,59,15.20
2019,07,14,03,00,15.20
2019,07,14,03,01,15.20
2019,07,14,03,02,15.10
2019,07,14,03,03,15.10
2019,07,14,03,04,15.10
2019,07,14,03,05,15.00
2019,07,14,03,06,15.00
2019,07,14,03,07,15.10
2019,07,14,03,08,15.10
2019,07,14,03,09,15.10
2019,07,14,03,10,15.10
2019,07,14,03,11,15.10
2019,07,14,03,12,15.10
2019,07,14,03,13,15.10
2019,07,14,03,14,15.10
2019,07,14,03,15,15.10
2019,07,14,03,16,15.00
2019,07,14,03,17,15.00
2019,07,14,03,18,15.00
2019,07,14,03,19,15.00
2019,07,14,03,20,15.00
2019,07,14,03,21,15.00
2019,07,14,03,22,15.00
2019,07,14,03,23,15.00
2019,07,14,03,24,15.00
2019,07,14,03,25,15.00
2019,07,14,03,26,15.00
2019,07,14,03,27,15.00
2019,07,14,03,28,15.00
2019,07,14,03,29,15.00
2019,07,14,03,30,15.00
2019,07,14,03,31,15.00
2019,07,14,03,32,15.00
2019,07,14,03,33,15.00
2019,07,14,03,34,15.00
2019,07,14,03,35,15.00
2019,07,14,03,36,15.00
2019,07,14,03,37,15.00
2019,07,14,03,38,15.00
2019,07,14,03,39,15.00
2019,07,14,03,40,15.00
2019,07,14,03,41,15.00
2019,07,14,03,42,15.00
2019,07,14,03,43,15.00
2019,07,14,03,44,15.00
2019,07,14,03,45,15.00
2019,07,14,03,46,15.00
2019,07,14,03,47,15.00
2019,07,14,03,48,15.00
2019,07,14,03,49,14.90
2019,07,14,03,50,14.90
2019,07,14,03,51,14.90
2019,07,14,03,52,14.90
2019,07,14,03,53,14.90
2019,07,14,03,54,14.90
2019,07,14,03,55,14.80
2019,07,14,03,56,14.80
2019,07,14,03,57,14.80
2019,07,14,03,58,14.80
2019,07,14,03,59,14.80
2019,07,14,04,00,14.80
2019,07,14,04,01,14.80
2019,07,14,04,02,14.70
2019,07,14,04,03,14.70
2019,07,14,04,04,14.70
2019,07,14,04,05,14.70
2019,07,14,04,06,14.70
2019,07,14,04,07,14.70
2019,07,14,04,08,14.70
2019,07,14,04,09,14.70
2019,07,14,04,10,14.70
2019,07,14,04,11,14.70
2019,07,14,04,12,14.70
2019,07,14,04,13,14.70
2019,07,14,04,14,14.70
2019,07,14,04,15,14.70
2019,07,14,04,16,14.70
2019,07,14,04,17,14.70
2019,07,14,04,18,14.70
2019,07,14,04,19,14.70
2019,07,14,04,20,14.60
2019,07,14,04,21,14.60
2019,07,14,04,22,14.60
2019,07,14,04,23,14.60
2019,07,14,04,24,14.60
2019,07,14,04,25,14.60
2019,07,14,04,26,14.60
2019,07,14,04,27,14.60
2019,07,14,04,28,14.60
2019,07,14,04,29,14.60
2019,07,14,04,30,14.60
2019,07,14,04,31,14.60
2019,07,14,04,32,14.60
2019,07,14,04,33,14.60
2019,07,14,04,34,14.60
2019,07,14,04,35,14.60
2019,07,14,04,36,14.60
2019,07,14,04,37,14.60
2019,07,14,04,38,14.60
2019,07,14,04,39,14.60
2019,07,14,04,40,14.60
2019,07,14,04,41,14.60
2019,07,14,04,42,14.60
2019,07,14,04,43,14.60
2019,07,14,04,44,14.60
2019,07,14,04,45,14.60
2019,07,14,04,46,14.60
2019,07,14,04,47,14.60
2019,07,14,04,48,14.60
2019,07,14,04,49,14.60
2019,07,14,04,50,14.50
2019,07,14,04,51,14.50
2019,07,14,04,52,14.50
2019,07,14,04,53,14.50
2019,07,14,04,54,14.40
2019,07,14,04,55,14.40
2019,07,14,04,56,14.40
2019,07,14,04,57,14.40
2019,07,14,04,58,14.40
2019,07,14,04,59,14.40
2019,07,14,05,00,14.40
2019,07,14,05,01,14.40
2019,07,14,05,02,14.40
2019,07,14,05,03,14.40
2019,07,14,05,04,14.40
2019,07,14,05,05,14.40
2019,07,14,05,06,14.40
2019,07,14,05,07,14.40
2019,07,14,05,08,14.40
2019,07,14,05,09,14.40
2019,07,14,05,10,14.40
2019,07,14,05,11,14.40
2019,07,14,05,12,14.30
2019,07,14,05,13,14.30
2019,07,14,05,14,14.30
2019,07,14,05,15,14.30
2019,07,14,05,16,14.30
2019,07,14,05,17,14.40
2019,07,14,05,18,14.40
2019,07,14,05,19,14.40
2019,07,14,05,20,14.30
2019,07,14,05,21,14.30
2019,07,14,05,22,14.30
2019,07,14,05,23,14.30
2019,07,14,05,24,14.30
2019,07,14,05,25,14.30
2019,07,14,05,26,14.30
2019,07,14,05,27,14.30
2019,07,14,05,28,14.30
2019,07,14,05,29,14.30
2019,07,14,05,30,14.30
2019,07,14,05,31,14.30
2019,07,14,05,32,14.30
2019,07,14,05,33,14.30
2019,07,14,05,34,14.30
2019,07,14,05,35,14.30
2019,07,14,05,36,14.30
2019,07,14,05,37,14.30
2019,07,14,05,38,14.30
2019,07,14,05,39,14.30
2019,07,14,05,40,14.30
2019,07,14,05,41,14.30
2019,07,14,05,42,14.30
2019,07,14,05,43,14.30
2019,07,14,05,44,14.30
2019,07,14,05,45,14.30
2019,07,14,05,46,14.40
2019,07,14,05,47,14.40
2019,07,14,05,48,14.40
2019,07,14,05,49,14.30
2019,07,14,05,50,14.40
2019,07,14,05,51,14.40
2019,07,14,05,52,14.30
2019,07,14,05,53,14.30
2019,07,14,05,54,14.30
2019,07,14,05,55,14.30
2019,07,14,05,56,14.30
2019,07,14,05,57,14.30
2019,07,14,05,58,14.30
2019,07,14,05,59,14.30
2019,07,14,06,00,14.30
2019,07,14,06,01,14.30
2019,07,14,06,02,14.30
2019,07,14,06,03,14.30
2019,07,14,06,04,14.40
2019,07,14,06,05,14.40
2019,07,14,06,06,14.40
2019,07,14,06,07,14.40
2019,07,14,06,08,14.40
2019,07,14,06,09,14.40
2019,07,14,06,10,14.40
2019,07,14,06,11,14.50
2019,07,14,06,12,14.50
2019,07,14,06,13,14.50
2019,07,14,06,14,14.50
2019,07,14,06,15,14.60
2019,07,14,06,16,14.60
2019,07,14,06,17,14.60
2019,07,14,06,18,14.50
2019,07,14,06,19,14.50
2019,07,14,06,20,14.50
2019,07,14,06,21,14.50
2019,07,14,06,22,14.50
2019,07,14,06,23,14.50
2019,07,14,06,24,14.50
2019,07,14,06,25,14.50
2019,07,14,06,26,14.50
2019,07,14,06,27,14.60
2019,07,14,06,28,14.60
2019,07,14,06,29,14.60
2019,07,14,06,30,14.60
2019,07,14,06,31,14.60
2019,07,14,06,32,14.60
2019,07,14,06,33,14.70
2019,07,14,06,34,14.70
2019,07,14,06,35,14.70
2019,07,14,06,36,14.70
2019,07,14,06,37,14.70
2019,07,14,06,38,14.70
2019,07,14,06,39,14.70
2019,07,14,06,40,14.70
2019,07,14,06,41,14.70
2019,07,14,06,42,14.80
2019,07,14,06,43,14.70
2019,07,14,06,44,14.80
2019,07,14,06,45,14.80
2019,07,14,06,46,14.80
2019,07,14,06,47,14.80
2019,07,14,06,48,14.90
2019,07,14,06,49,14.90
2019,07,14,06,50,14.90
2019,07,14,06,51,15.00
2019,07,14,06,52,15.00
2019,07,14,06,53,15.00
2019,07,14,06,54,15.00
2019,07,14,06,55,15.00
2019,07,14,06,56,15.00
2019,07,14,06,57,15.00
2019,07,14,06,58,15.00
2019,07,14,06,59,15.00
2019,07,14,07,00,15.00
2019,07,14,07,01,15.00
2019,07,14,07,02,15.00
2019,07,14,07,03,15.00
2019,07,14,07,04,15.00
2019,07,14,07,05,15.00
2019,07,14,07,06,15.10
2019,07,14,07,07,15.10
2019,07,14,07,08,15.20
2019,07,14,07,09,15.20
2019,07,14,07,10,15.20
2019,07,14,07,11,15.30
2019,07,14,07,12,15.30
2019,07,14,07,13,15.30
2019,07,14,07,14,15.30
2019,07,14,07,15,15.40
2019,07,14,07,16,15.40
2019,07,14,07,17,15.40
2019,07,14,07,18,15.40
2019,07,14,07,19,15.40
2019,07,14,07,20,15.50
2019,07,14,07,21,15.50
2019,07,14,07,22,15.50
2019,07,14,07,23,15.50
2019,07,14,07,24,15.50
2019,07,14,07,25,15.60
2019,07,14,07,26,15.60
2019,07,14,07,27,15.60
2019,07,14,07,28,15.60
2019,07,14,07,29,15.60
2019,07,14,07,30,15.70
2019,07,14,07,31,15.70
2019,07,14,07,32,15.70
2019,07,14,07,33,15.80
2019,07,14,07,34,15.80
2019,07,14,07,35,15.80
2019,07,14,07,36,15.90
2019,07,14,07,37,15.90
2019,07,14,07,38,16.00
2019,07,14,07,39,16.00
2019,07,14,07,40,16.10
2019,07,14,07,41,16.10
2019,07,14,07,42,16.20
2019,07,14,07,43,16.20
2019,07,14,07,44,16.30
2019,07,14,07,45,16.30
2019,07,14,07,46,16.30
2019,07,14,07,47,16.40
2019,07,14,07,48,16.40
2019,07,14,07,49,16.40
2019,07,14,07,50,16.50
2019,07,14,07,51,16.50
2019,07,14,07,52,16.60
2019,07,14,07,53,16.60
2019,07,14,07,54,16.60
2019,07,14,07,55,16.70
2019,07,14,07,56,16.70
2019,07,14,07,57,16.80
2019,07,14,07,58,16.80
2019,07,14,07,59,16.80
2019,07,14,08,00,16.90
2019,07,14,08,01,16.90
2019,07,14,08,02,17.00
2019,07,14,08,03,17.00
2019,07,14,08,04,17.00
2019,07,14,08,05,17.00
2019,07,14,08,06,17.10
2019,07,14,08,07,17.10
2019,07,14,08,08,17.10
2019,07,14,08,09,17.10
2019,07,14,08,10,17.10
2019,07,14,08,11,17.10
2019,07,14,08,12,17.10
2019,07,14,08,13,17.10
2019,07,14,08,14,17.20
2019,07,14,08,15,17.20
2019,07,14,08,16,17.20
2019,07,14,08,17,17.20
2019,07,14,08,18,17.20
2019,07,14,08,19,17.20
2019,07,14,08,20,17.20
2019,07,14,08,21,17.20
2019,07,14,08,22,17.20
2019,07,14,08,23,17.20
2019,07,14,08,24,17.20
2019,07,14,08,25,17.30
2019,07,14,08,26,17.30
2019,07,14,08,27,17.30
2019,07,14,08,28,17.40
2019,07,14,08,29,17.40
2019,07,14,08,30,17.40
2019,07,14,08,31,17.40
2019,07,14,08,32,17.40
2019,07,14,08,33,17.50
2019,07,14,08,34,17.50
2019,07,14,08,35,17.60
2019,07,14,08,36,17.60
2019,07,14,08,37,17.70
2019,07,14,08,38,17.70
2019,07,14,08,39,17.80
2019,07,14,08,40,17.90
2019,07,14,08,41,18.00
2019,07,14,08,42,18.00
2019,07,14,08,43,18.10
2019,07,14,08,44,18.10
2019,07,14,08,45,18.20
2019,07,14,08,46,18.20
2019,07,14,08,47,18.30
2019,07,14,08,48,18.30
2019,07,14,08,49,18.40
2019,07,14,08,50,18.40
2019,07,14,08,51,18.50
2019,07,14,08,52,18.60
2019,07,14,08,53,18.60
2019,07,14,08,54,18.70
2019,07,14,08,55,18.70
2019,07,14,08,56,18.70
2019,07,14,08,57,18.80
2019,07,14,08,58,18.80
2019,07,14,08,59,18.90
2019,07,14,09,00,18.90
2019,07,14,09,01,19.00
2019,07,14,09,02,19.10
2019,07,14,09,03,19.20
2019,07,14,09,04,19.30
2019,07,14,09,05,19.40
2019,07,14,09,06,19.60
2019,07,14,09,07,19.70
2019,07,14,09,08,19.80
2019,07,14,09,09,19.90
2019,07,14,09,10,20.00
2019,07,14,09,11,20.10
2019,07,14,09,12,20.20
2019,07,14,09,13,20.30
2019,07,14,09,14,20.40
2019,07,14,09,15,20.50
2019,07,14,09,16,20.60
2019,07,14,09,17,20.70
2019,07,14,09,18,20.80
2019,07,14,09,19,20.80
2019,07,14,09,20,20.90
2019,07,14,09,21,20.90
2019,07,14,09,22,20.90
2019,07,14,09,23,20.90
2019,07,14,09,24,20.90
2019,07,14,09,25,20.90
2019,07,14,09,26,20.90
2019,07,14,09,27,20.90
2019,07,14,09,28,20.90
2019,07,14,09,29,20.90
2019,07,14,09,30,20.90
2019,07,14,09,31,21.00
2019,07,14,09,32,21.10
2019,07,14,09,33,21.00
2019,07,14,09,34,20.90
2019,07,14,09,35,20.90
2019,07,14,09,36,20.90
2019,07,14,09,37,20.90
2019,07,14,09,38,20.90
2019,07,14,09,39,21.00
2019,07,14,09,40,21.00
2019,07,14,09,41,21.20
2019,07,14,09,42,21.20
2019,07,14,09,43,21.10
2019,07,14,09,44,21.20
2019,07,14,09,45,21.20
2019,07,14,09,46,21.20
2019,07,14,09,47,21.20
2019,07,14,09,48,21.30
2019,07,14,09,49,21.30
2019,07,14,09,50,21.30
2019,07,14,09,51,21.40
2019,07,14,09,52,21.40
2019,07,14,09,53,21.40
2019,07,14,09,54,21.40
2019,07,14,09,55,21.50
2019,07,14,09,56,21.50
2019,07,14,09,57,21.60
2019,07,14,09,58,21.60
2019,07,14,09,59,21.70
2019,07,14,10,00,21.70
2019,07,14,10,01,21.70
2019,07,14,10,02,21.70
2019,07,14,10,03,21.70
2019,07,14,10,04,21.60
2019,07,14,10,05,21.60
2019,07,14,10,06,21.50
2019,07,14,10,07,21.50
2019,07,14,10,08,21.40
2019,07,14,10,09,21.50
2019,07,14,10,10,21.60
2019,07,14,10,11,21.60
2019,07,14,10,12,21.70
2019,07,14,10,13,21.70
2019,07,14,10,14,21.70
2019,07,14,10,15,21.70
2019,07,14,10,16,21.70
2019,07,14,10,17,21.80
2019,07,14,10,18,21.80
2019,07,14,10,19,21.80
2019,07,14,10,20,21.80
2019,07,14,10,21,21.80
2019,07,14,10,22,21.80
2019,07,14,10,23,21.80
2019,07,14,10,24,21.80
2019,07,14,10,25,21.70
2019,07,14,10,26,21.60
2019,07,14,10,27,21.60
2019,07,14,10,28,21.60
2019,07,14,10,29,21.60
2019,07,14,10,30,21.70
2019,07,14,10,31,21.80
2019,07,14,10,32,21.80
2019,07,14,10,33,21.70
2019,07,14,10,34,21.60
2019,07,14,10,35,21.50
2019,07,14,10,36,21.50
2019,07,14,10,37,21.50
2019,07,14,10,38,21.50
2019,07,14,10,39,21.60
2019,07,14,10,40,21.60
2019,07,14,10,41,21.70
2019,07,14,10,42,21.80
2019,07,14,10,43,21.70
2019,07,14,10,44,21.70
2019,07,14,10,45,21.80
2019,07,14,10,46,21.80
2019,07,14,10,47,21.90
2019,07,14,10,48,21.90
2019,07,14,10,49,21.90
2019,07,14,10,50,21.90
2019,07,14,10,51,21.90
2019,07,14,10,52,21.90
2019,07,14,10,53,22.00
2019,07,14,10,54,22.00
2019,07,14,10,55,22.10
2019,07,14,10,56,22.20
2019,07,14,10,57,22.30
2019,07,14,10,58,22.40
2019,07,14,10,59,22.40
2019,07,14,11,00,22.40
2019,07,14,11,01,22.50
2019,07,14,11,02,22.50
2019,07,14,11,03,22.40
2019,07,14,11,04,22.30
2019,07,14,11,05,22.30
2019,07,14,11,06,22.20
2019,07,14,11,07,22.10
2019,07,14,11,08,22.10
2019,07,14,11,09,22.10
2019,07,14,11,10,22.20
2019,07,14,11,11,22.20
2019,07,14,11,12,22.30
2019,07,14,11,13,22.20
2019,07,14,11,14,22.10
2019,07,14,11,15,22.10
2019,07,14,11,16,22.00
2019,07,14,11,17,22.10
2019,07,14,11,18,22.10
2019,07,14,11,19,22.10
2019,07,14,11,20,22.10
2019,07,14,11,21,22.10
2019,07,14,11,22,22.10
2019,07,14,11,23,22.10
2019,07,14,11,24,22.20
2019,07,14,11,25,22.20
2019,07,14,11,26,22.30
2019,07,14,11,27,22.30
2019,07,14,11,28,22.20
2019,07,14,11,29,22.20
2019,07,14,11,30,22.30
2019,07,14,11,31,22.30
2019,07,14,11,32,22.30
2019,07,14,11,33,22.30
2019,07,14,11,34,22.20
2019,07,14,11,35,22.20
2019,07,14,11,36,22.10
2019,07,14,11,37,22.00
2019,07,14,11,38,21.90
2019,07,14,11,39,21.90
2019,07,14,11,40,22.00
2019,07,14,11,41,22.00
2019,07,14,11,42,22.10
2019,07,14,11,43,22.20
2019,07,14,11,44,22.20
2019,07,14,11,45,22.20
2019,07,14,11,46,22.10
2019,07,14,11,47,22.00
2019,07,14,11,48,21.80
2019,07,14,11,49,21.80
2019,07,14,11,50,21.80
2019,07,14,11,51,21.80
2019,07,14,11,52,21.80
2019,07,14,11,53,21.90
2019,07,14,11,54,21.90
2019,07,14,11,55,21.90
2019,07,14,11,56,21.90
2019,07,14,11,57,21.90
2019,07,14,11,58,21.80
2019,07,14,11,59,21.70
2019,07,14,12,00,21.60
2019,07,14,12,01,21.60
2019,07,14,12,02,21.50
2019,07,14,12,03,21.40
2019,07,14,12,04,21.40
2019,07,14,12,05,21.30
2019,07,14,12,06,21.30
2019,07,14,12,07,21.30
2019,07,14,12,08,21.30
2019,07,14,12,09,21.30
2019,07,14,12,10,21.20
2019,07,14,12,11,21.20
2019,07,14,12,12,21.20
2019,07,14,12,13,21.20
2019,07,14,12,14,21.20
2019,07,14,12,15,21.20
2019,07,14,12,16,21.20
2019,07,14,12,17,21.20
2019,07,14,12,18,21.20
2019,07,14,12,19,21.20
2019,07,14,12,20,21.20
2019,07,14,12,21,21.30
2019,07,14,12,22,21.30
2019,07,14,12,23,21.30
2019,07,14,12,24,21.20
2019,07,14,12,25,21.20
2019,07,14,12,26,21.20
2019,07,14,12,27,21.20
2019,07,14,12,28,21.20
2019,07,14,12,29,21.20
2019,07,14,12,30,21.20
2019,07,14,12,31,21.10
2019,07,14,12,32,21.10
2019,07,14,12,33,21.20
2019,07,14,12,34,21.20
2019,07,14,12,35,21.20
2019,07,14,12,36,21.20
2019,07,14,12,37,21.30
2019,07,14,12,38,21.30
2019,07,14,12,39,21.40
2019,07,14,12,40,21.40
2019,07,14,12,41,21.40
2019,07,14,12,42,21.40
2019,07,14,12,43,21.40
2019,07,14,12,44,21.50
2019,07,14,12,45,21.50
2019,07,14,12,46,21.60
2019,07,14,12,47,21.60
2019,07,14,12,48,21.60
2019,07,14,12,49,21.70
2019,07,14,12,50,21.70
2019,07,14,12,51,21.70
2019,07,14,12,52,21.80
2019,07,14,12,53,21.80
2019,07,14,12,54,21.90
2019,07,14,12,55,22.00
2019,07,14,12,56,22.00
2019,07,14,12,57,22.10
2019,07,14,12,58,22.00
2019,07,14,12,59,21.90
2019,07,14,13,00,21.80
2019,07,14,13,01,21.80
2019,07,14,13,02,21.80
2019,07,14,13,03,21.80
2019,07,14,13,04,21.80
2019,07,14,13,05,21.80
2019,07,14,13,06,21.80
2019,07,14,13,07,21.80
2019,07,14,13,08,21.90
2019,07,14,13,09,22.00
2019,07,14,13,10,22.10
2019,07,14,13,11,22.20
2019,07,14,13,12,22.20
2019,07,14,13,13,22.20
2019,07,14,13,14,22.30
2019,07,14,13,15,22.30
2019,07,14,13,16,22.30
2019,07,14,13,17,22.30
2019,07,14,13,18,22.30
2019,07,14,13,19,22.30
2019,07,14,13,20,22.30
2019,07,14,13,21,22.30
2019,07,14,13,22,22.20
2019,07,14,13,23,22.10
2019,07,14,13,24,22.10
2019,07,14,13,25,22.00
2019,07,14,13,26,21.90
2019,07,14,13,27,21.90
2019,07,14,13,28,21.80
2019,07,14,13,29,21.80
2019,07,14,13,30,21.70
2019,07,14,13,31,21.70
2019,07,14,13,32,21.80
2019,07,14,13,33,21.70
2019,07,14,13,34,21.60
2019,07,14,13,35,21.60
2019,07,14,13,36,21.60
2019,07,14,13,37,21.50
2019,07,14,13,38,21.50
2019,07,14,13,39,21.40
2019,07,14,13,40,21.30
2019,07,14,13,41,21.30
2019,07,14,13,42,21.30
2019,07,14,13,43,21.30
2019,07,14,13,44,21.30
2019,07,14,13,45,21.30
2019,07,14,13,46,21.20
2019,07,14,13,47,21.20
2019,07,14,13,48,21.20
2019,07,14,13,49,21.20
2019,07,14,13,50,21.20
2019,07,14,13,51,21.20
2019,07,14,13,52,21.10
2019,07,14,13,53,21.20
2019,07,14,13,54,21.20
2019,07,14,13,55,21.20
2019,07,14,13,56,21.20
2019,07,14,13,57,21.30
2019,07,14,13,58,21.30
2019,07,14,13,59,21.30
2019,07,14,14,00,21.30
2019,07,14,14,01,21.30
2019,07,14,14,02,21.30
2019,07,14,14,03,21.30
2019,07,14,14,04,21.30
2019,07,14,14,05,21.30
2019,07,14,14,06,21.30
2019,07,14,14,07,21.30
2019,07,14,14,08,21.30
2019,07,14,14,09,21.30
2019,07,14,14,10,21.30
2019,07,14,14,11,21.30
2019,07,14,14,12,21.30
2019,07,14,14,13,21.30
2019,07,14,14,14,21.30
2019,07,14,14,15,21.30
2019,07,14,14,16,21.30
2019,07,14,14,17,21.30
2019,07,14,14,18,21.30
2019,07,14,14,19,21.40
2019,07,14,14,20,21.40
2019,07,14,14,21,21.50
2019,07,14,14,22,21.60
2019,07,14,14,23,21.60
2019,07,14,14,24,21.70
2019,07,14,14,25,21.70
2019,07,14,14,26,21.80
2019,07,14,14,27,21.80
2019,07,14,14,28,21.80
2019,07,14,14,29,21.80
2019,07,14,14,30,21.90
2019,07,14,14,31,21.90
2019,07,14,14,32,22.00
2019,07,14,14,33,22.00
2019,07,14,14,34,22.10
2019,07,14,14,35,22.10
2019,07,14,14,36,22.10
2019,07,14,14,37,22.20
2019,07,14,14,38,22.20
2019,07,14,14,39,22.30
2019,07,14,14,40,22.30
2019,07,14,14,41,22.30
2019,07,14,14,42,22.40
2019,07,14,14,43,22.50
2019,07,14,14,44,22.60
2019,07,14,14,45,22.60
2019,07,14,14,46,22.70
2019,07,14,14,47,22.80
2019,07,14,14,48,22.90
2019,07,14,14,49,22.90
2019,07,14,14,50,22.90
2019,07,14,14,51,22.90
2019,07,14,14,52,22.90
2019,07,14,14,53,22.90
2019,07,14,14,54,22.80
2019,07,14,14,55,22.90
2019,07,14,14,56,22.90
2019,07,14,14,57,22.90
2019,07,14,14,58,22.90
2019,07,14,14,59,22.90
2019,07,14,15,00,23.00
2019,07,14,15,01,23.10
2019,07,14,15,02,23.20
2019,07,14,15,03,23.20
2019,07,14,15,04,23.30
2019,07,14,15,05,23.40
2019,07,14,15,06,23.40
2019,07,14,15,07,23.40
2019,07,14,15,08,23.40
2019,07,14,15,09,23.40
2019,07,14,15,10,23.40
2019,07,14,15,11,23.40
2019,07,14,15,12,23.40
2019,07,14,15,13,23.40
2019,07,14,15,14,23.40
2019,07,14,15,15,23.50
2019,07,14,15,16,23.40
2019,07,14,15,17,23.50
2019,07,14,15,18,23.50
2019,07,14,15,19,23.50
2019,07,14,15,20,23.50
2019,07,14,15,21,23.50
2019,07,14,15,22,23.60
2019,07,14,15,23,23.60
2019,07,14,15,24,23.60
2019,07,14,15,25,23.70
2019,07,14,15,26,23.80
2019,07,14,15,27,23.80
2019,07,14,15,28,23.90
2019,07,14,15,29,24.00
2019,07,14,15,30,24.10
2019,07,14,15,31,24.10
2019,07,14,15,32,24.10
2019,07,14,15,33,24.10
2019,07,14,15,34,24.10
2019,07,14,15,35,24.10
2019,07,14,15,36,24.00
2019,07,14,15,37,24.00
2019,07,14,15,38,24.00
2019,07,14,15,39,23.90
2019,07,14,15,40,23.90
2019,07,14,15,41,23.90
2019,07,14,15,42,23.90
2019,07,14,15,43,23.90
2019,07,14,15,44,23.90
2019,07,14,15,45,23.90
2019,07,14,15,46,24.00
2019,07,14,15,47,24.00
2019,07,14,15,48,24.00
2019,07,14,15,49,24.00
2019,07,14,15,50,23.90
2019,07,14,15,51,23.90
2019,07,14,15,52,23.90
2019,07,14,15,53,23.90
2019,07,14,15,54,23.90
2019,07,14,15,55,24.00
2019,07,14,15,56,24.00
2019,07,14,15,57,24.10
2019,07,14,15,58,24.10
2019,07,14,15,59,24.10
2019,07,14,16,00,24.10
2019,07,14,16,01,24.20
2019,07,14,16,02,24.20
2019,07,14,16,03,24.20
2019,07,14,16,04,24.30
2019,07,14,16,05,24.30
2019,07,14,16,06,24.40
2019,07,14,16,07,24.40
2019,07,14,16,08,24.50
2019,07,14,16,09,24.50
2019,07,14,16,10,24.50
2019,07,14,16,11,24.40
2019,07,14,16,12,24.40
2019,07,14,16,13,24.30
2019,07,14,16,14,24.30
2019,07,14,16,15,24.20
2019,07,14,16,16,24.20
2019,07,14,16,17,24.20
2019,07,14,16,18,24.20
2019,07,14,16,19,24.20
2019,07,14,16,20,24.20
2019,07,14,16,21,24.20
2019,07,14,16,22,24.10
2019,07,14,16,23,24.10
2019,07,14,16,24,24.00
2019,07,14,16,25,23.90
2019,07,14,16,26,23.80
2019,07,14,16,27,23.80
2019,07,14,16,28,23.70
2019,07,14,16,29,23.60
2019,07,14,16,30,23.60
2019,07,14,16,31,23.50
2019,07,14,16,32,23.50
2019,07,14,16,33,23.40
2019,07,14,16,34,23.40
2019,07,14,16,35,23.40
2019,07,14,16,36,23.40
2019,07,14,16,37,23.50
2019,07,14,16,38,23.50
2019,07,14,16,39,23.50
2019,07,14,16,40,23.60
2019,07,14,16,41,23.60
2019,07,14,16,42,23.60
2019,07,14,16,43,23.60
2019,07,14,16,44,23.60
2019,07,14,16,45,23.70
2019,07,14,16,46,23.70
2019,07,14,16,47,23.80
2019,07,14,16,48,23.80
2019,07,14,16,49,23.90
2019,07,14,16,50,23.90
2019,07,14,16,51,23.90
2019,07,14,16,52,23.90
2019,07,14,16,53,23.90
2019,07,14,16,54,23.80
2019,07,14,16,55,23.80
2019,07,14,16,56,23.70
2019,07,14,16,57,23.60
2019,07,14,16,58,23.60
2019,07,14,16,59,23.50
2019,07,14,17,00,23.50
2019,07,14,17,01,23.50
2019,07,14,17,02,23.50
2019,07,14,17,03,23.50
2019,07,14,17,04,23.60
2019,07,14,17,05,23.60
2019,07,14,17,06,23.70
2019,07,14,17,07,23.70
2019,07,14,17,08,23.70
2019,07,14,17,09,23.80
2019,07,14,17,10,23.80
2019,07,14,17,11,23.80
2019,07,14,17,12,23.80
2019,07,14,17,13,23.80
2019,07,14,17,14,23.80
2019,07,14,17,15,23.80
2019,07,14,17,16,23.80
2019,07,14,17,17,23.80
2019,07,14,17,18,23.80
2019,07,14,17,19,23.70